Santee, CA

6:49 AM PST on December 15, 2017 (GMT -0800)
Gillespie

Weather History for KSEE - November, 2012

Change the Weather History Date:

Tuesday, November 13, 2012

  Actual Average Record
Temperature  
Mean Temperature 60 °F -  
Max Temperature 84 °F 75 °F 95 °F (2013)
Min Temperature 35 °F 46 °F 35 °F (2012)
Degree Days  
Heating Degree Days 6    
Growing Degree Days 10 (Base 50)    
Moisture  
Dew Point 29 °F    
Average Humidity 59    
Maximum Humidity 75    
Minimum Humidity 9    
Precipitation  
Precipitation 0.00 in - - ()
Sea Level Pressure  
Sea Level Pressure 30.10 in    
Wind  
Wind Speed 0 mph (West)    
Max Wind Speed 12 mph    
Max Gust Speed -    
Visibility 10 miles    
Events      
Averages and records for this station are not official NWS values.
T = Trace of Precipitation, MM = Missing Value Source: NWS Daily Summary

Daily Weather History Graph

Daily Weather History Graph

Search for Another Location

Airport or City:

Trip Planner

Search our weather history database for the weather conditions in past years. The results will help you decide how hot, cold, wet, or windy it might be!

Date:

Astronomy

Nov. 13, 2012 Rise Set
Actual Time 6:16 AM PST 4:47 PM PST
Civil Twilight 5:50 AM PST 5:13 PM PST
Nautical Twilight 5:21 AM PST 5:43 PM PST
Astronomical Twilight 4:51 AM PST 6:12 PM PST
Moon 5:59 AM PST (11/13) 4:46 PM PST (11/13)
Length of Visible Light 11h 22m
Length of Day
10h 30m
Waning Crescent, 0% of the Moon is Illuminated
Nov 13
Waning Crescent
Nov 13
New
Nov 20
First Quarter
Nov 28
Full
Dec 6
Last Quarter

Hourly Weather History & Observations

Time (PST) Temp. Windchill Dew Point Humidity Pressure Visibility Wind Dir Wind Speed Gust Speed Precip Events Conditions
12:15 AM 41.0 °F - 28.4 °F 61% 30.15 in 10.0 mi Calm Calm - N/A   Clear
12:35 AM 41.0 °F - 28.4 °F 61% 30.16 in 10.0 mi Calm Calm - N/A   Clear
12:55 AM 39.2 °F - 28.4 °F 65% 30.15 in 10.0 mi Calm Calm - N/A   Clear
1:15 AM 39.2 °F - 30.2 °F 70% 30.15 in 10.0 mi Calm Calm - N/A   Clear
1:35 AM 39.2 °F - 30.2 °F 70% 30.15 in 10.0 mi Calm Calm - N/A   Clear
1:55 AM 39.2 °F - 28.4 °F 65% 30.14 in 10.0 mi Calm Calm - N/A   Clear
2:15 AM 39.2 °F - 28.4 °F 65% 30.13 in 10.0 mi Calm Calm - N/A   Clear
2:35 AM 37.4 °F - 30.2 °F 75% 30.12 in 10.0 mi Calm Calm - N/A   Clear
2:55 AM 37.4 °F - 28.4 °F 70% 30.12 in 10.0 mi Calm Calm - N/A   Clear
3:15 AM 37.4 °F - 28.4 °F 70% 30.11 in 10.0 mi Calm Calm - N/A   Clear
3:35 AM 37.4 °F - 28.4 °F 70% 30.11 in 10.0 mi Calm Calm - N/A   Clear
4:15 AM 37.4 °F - 30.2 °F 75% 30.10 in 10.0 mi Calm Calm - N/A   Clear
4:35 AM 37.4 °F - 30.2 °F 75% 30.10 in 10.0 mi Calm Calm - N/A   Clear
4:55 AM 35.6 °F - 28.4 °F 75% 30.10 in 10.0 mi Calm Calm - N/A   Clear
5:15 AM 35.6 °F - 28.4 °F 75% 30.10 in 10.0 mi Calm Calm - N/A   Clear
6:47 AM 37.4 °F - 30.2 °F 75% 30.11 in 25.0 mi Calm Calm - N/A   Partly Cloudy
7:55 AM 44.6 °F - 30.2 °F 57% 30.12 in 25.0 mi Calm Calm - N/A   Partly Cloudy
8:49 AM 53.6 °F - 30.2 °F 41% 30.11 in 25.0 mi Calm Calm - N/A   Partly Cloudy
2:47 PM 84.2 °F - 19.4 °F 9% 29.97 in 25.0 mi West 11.5 mph - N/A   Clear
8:15 PM 51.8 °F - 26.6 °F 38% 30.05 in 10.0 mi Calm Calm - N/A   Clear
8:35 PM 51.8 °F - 26.6 °F 38% 30.05 in 10.0 mi WNW 3.5 mph - N/A   Clear
8:55 PM 51.8 °F - 28.4 °F 41% 30.05 in 10.0 mi Calm Calm - N/A   Clear
9:15 PM 50.0 °F - 28.4 °F 43% 30.05 in 10.0 mi West 3.5 mph - N/A   Clear
9:35 PM 48.2 °F - 30.2 °F 50% 30.06 in 10.0 mi Calm Calm - N/A   Clear
9:55 PM 48.2 °F - 30.2 °F 50% 30.06 in 10.0 mi Calm Calm - N/A   Clear
10:15 PM 48.2 °F - 30.2 °F 50% 30.06 in 10.0 mi Calm Calm - N/A   Clear
10:35 PM 46.4 °F - 32.0 °F 57% 30.07 in 10.0 mi Calm Calm - N/A   Clear
10:55 PM 46.4 °F 45.2 °F 32.0 °F 57% 30.07 in 10.0 mi West 3.5 mph - N/A   Clear
11:15 PM 46.4 °F - 32.0 °F 57% 30.08 in 10.0 mi Calm Calm - N/A   Clear
11:35 PM 46.4 °F - 32.0 °F 57% 30.08 in 10.0 mi Calm Calm - N/A   Clear
11:55 PM 46.4 °F - 32.0 °F 57% 30.08 in 10.0 mi Calm Calm - N/A   Clear